EHI
0 0 0 0 0 0 0 1 2 3 4 5 8 11 16 21 23 24 23 21 19 21 27 30 30 28 24 19 19 21 24 27 30 30 27 25 24 24 26 27 25 24 21 17
0 0 0 1 1 1 1 1 3 3 4 5 8 12 17 22 25 26 25 24 24 27 32 33 30 27 23 20 20 24 26 26 25 25 24 23 22 23 26 27 27 26 22 18
0 1 1 2 4 3 2 2 3 3 4 5 8 12 17 23 27 29 31 32 33 35 36 34 28 25 21 20 23 26 27 24 21 21 21 20 20 23 26 29 29 27 23 19
1 2 2 3 4 3 2 3 3 4 4 4 6 9 15 22 27 33 38 40 40 38 36 30 25 24 22 22 23 25 25 23 20 18 19 19 20 23 27 28 27 24 20 17
1 1 2 2 2 2 2 4 5 5 4 4 4 9 16 22 27 34 40 43 42 39 35 31 27 26 25 23 21 21 21 20 17 16 17 19 21 24 26 24 21 17 14 11
1 1 0 1 1 2 3 5 7 7 6 6 6 10 20 26 27 31 39 43 43 41 39 36 32 29 27 23 20 20 20 17 15 15 17 19 21 23 23 20 15 11 8 6
2 1 0 0 1 4 6 8 8 9 9 8 8 13 23 29 31 35 40 43 44 44 42 39 35 30 25 22 20 20 19 16 14 14 14 16 18 20 19 16 11 7 5 4
3 3 2 1 2 6 9 8 7 8 9 9 10 16 25 32 38 42 42 42 43 44 43 39 33 29 25 22 20 20 18 15 14 13 11 12 13 14 14 12 8 5 4 5
4 4 4 4 5 6 7 7 6 8 10 10 13 19 27 36 41 43 42 40 41 42 41 35 30 26 25 24 23 20 17 15 14 12 10 8 8 9 9 7 5 4 4 5
5 4 4 5 7 7 6 6 7 9 11 11 14 21 30 38 41 41 41 41 40 39 37 31 27 26 25 25 25 22 18 14 12 10 7 6 5 5 6 4 3 3 4 4
5 5 6 7 8 8 7 6 6 8 10 11 15 23 31 37 40 41 41 41 39 37 35 31 28 27 26 24 24 23 19 14 10 8 6 4 3 3 3 2 1 2 3 3
6 7 8 8 8 8 7 6 6 7 10 12 16 23 29 34 38 41 42 40 37 36 35 31 28 26 23 21 21 20 18 13 9 8 6 4 3 1 1 1 0 1 1 1
8 9 9 7 7 8 8 6 5 6 8 11 15 22 28 33 37 40 40 37 34 32 31 28 24 21 18 17 17 16 14 11 9 9 7 6 4 2 1 1 0 0 0 0
9 9 9 8 7 7 7 6 6 7 6 9 17 25 30 33 36 37 35 33 29 27 25 22 19 17 16 13 12 11 10 8 8 8 7 6 5 3 2 2 1 1 1 0
8 8 8 8 7 5 5 6 7 8 8 11 20 30 35 36 35 33 31 28 25 22 19 18 17 16 14 11 9 8 7 7 7 7 7 6 5 3 2 3 3 3 2 1
7 7 7 7 6 5 4 5 7 10 12 17 25 34 40 40 37 31 27 24 22 19 16 16 16 15 13 10 9 7 7 6 6 6 6 6 4 3 3 3 3 4 3 2
6 6 7 8 7 6 6 6 8 11 15 20 28 35 39 40 36 30 25 22 21 18 15 15 16 15 12 10 10 9 8 7 6 5 5 5 4 3 3 3 3 3 3 2
4 4 5 6 7 7 7 9 10 12 16 22 29 33 35 34 32 28 25 23 22 18 15 14 14 13 11 10 10 9 9 8 7 5 5 4 4 3 3 3 3 3 3 2
3 4 4 4 5 6 8 11 14 15 18 23 28 30 30 28 26 25 23 23 21 18 15 12 11 10 10 10 10 9 9 8 8 7 6 5 4 3 3 3 3 2 2 1
3 4 5 5 5 6 8 12 16 19 19 20 23 25 26 24 23 21 20 19 18 16 14 11 9 8 8 9 9 8 7 7 7 7 7 7 5 4 3 2 1 1 1 1
4 6 8 8 7 7 8 11 15 18 18 16 17 21 23 22 20 19 18 16 14 14 12 10 8 8 8 8 7 7 6 7 7 7 6 6 5 3 1 1 0 0 0 1
8 11 13 13 11 11 10 11 14 15 14 14 16 19 21 19 17 16 15 14 12 9 8 7 6 7 7 7 7 7 6 6 6 6 5 4 3 1 0 0 0 0 0 1
14 16 17 16 15 14 12 13 14 14 13 15 16 18 19 17 15 13 12 11 8 5 5 5 5 4 4 6 7 7 6 5 5 4 4 3 2 0 0 0 0 0 0 0
18 19 17 16 15 15 14 14 15 15 14 15 15 15 16 15 14 12 11 9 6 4 3 3 2 1 2 5 6 6 5 4 3 3 3 3 2 0 0 0 0 0 0 0
17 17 16 13 12 13 14 14 14 13 12 12 11 10 11 12 11 10 10 9 6 5 4 2 0 0 1 4 5 5 5 4 3 3 3 2 1 0 0 0 0 0 0 0
12 13 12 11 10 10 11 12 11 11 10 10 8 6 6 8 8 8 9 8 6 6 4 3 1 1 1 3 4 4 4 4 3 3 1 1 0 0 0 0 0 0 0 0
8 8 9 10 10 9 8 9 9 10 11 9 7 5 5 6 7 7 6 6 5 5 4 3 2 2 1 1 3 4 4 4 3 2 1 0 0 0 0 0 0 0 0 0
Wind_Speed
12 10 9 8 9 10 10 7 7 3 2 1 1 2 4 5 5 5 6 5 6 5 5 5 5 4 4 4 3 3 2 2 2 2 1 0 1 1 1 1 1 1 2 2
11 11 11 10 10 10 9 7 6 3 1 2 0 1 3 5 5 5 4 5 6 6 6 5 4 3 4 3 3 3 2 2 2 1 1 0 0 0 0 1 1 2 2 2
11 11 10 10 8 8 6 5 6 3 1 1 0 1 2 4 4 4 4 5 5 6 6 5 6 4 3 3 3 3 2 1 1 1 1 1 1 1 1 1 1 1 2 2
9 8 11 6 2 4 5 5 5 3 2 1 0 0 3 4 4 4 4 4 4 5 6 6 6 6 4 3 2 2 2 1 1 1 1 1 1 1 0 0 1 1 1 1
8 9 10 7 3 4 5 3 4 4 4 3 2 1 3 5 5 5 4 4 4 4 5 4 4 4 3 3 2 2 2 1 1 1 1 1 1 1 1 1 1 1 0 0
8 9 10 4 2 3 4 2 4 5 5 4 4 2 2 5 6 4 4 4 5 4 4 4 3 3 3 2 2 1 1 1 1 1 1 1 1 1 1 1 1 1 1 1
9 10 6 2 3 4 4 1 4 5 5 4 3 2 2 5 5 5 5 6 5 4 4 4 4 4 3 2 1 1 2 2 1 1 1 1 1 1 1 1 1 1 1 1
8 9 4 5 3 3 4 3 3 5 5 4 3 4 5 6 6 6 5 5 5 4 4 4 4 3 3 2 2 2 2 1 1 0 2 1 1 1 1 1 2 2 1 1
3 2 2 4 4 5 5 5 5 5 4 3 3 3 4 5 5 5 5 5 4 4 4 4 3 2 2 2 2 1 1 1 0 0 1 1 1 1 1 1 2 2 1 1
2 2 2 2 3 4 4 4 4 5 4 3 2 3 4 4 4 4 4 4 4 4 3 3 3 2 2 2 1 1 1 0 1 1 1 1 1 1 1 1 1 2 2 2
4 2 1 1 1 3 3 4 4 4 4 2 1 2 4 4 3 3 3 3 3 3 3 3 3 3 2 2 1 1 1 2 3 2 2 2 1 1 1 0 0 1 2 2
3 1 1 1 3 3 2 2 2 2 3 2 1 2 3 3 3 3 3 3 2 3 3 3 3 3 2 1 1 1 2 2 3 2 2 2 2 1 1 2 2 2 2 1
3 3 2 3 2 2 2 3 2 2 2 1 0 1 3 3 3 3 3 4 4 3 3 3 3 2 2 1 1 2 3 3 3 2 2 2 2 2 2 2 3 3 3 3
3 3 2 1 2 3 3 3 3 3 2 1 0 1 2 3 3 3 3 3 3 4 3 3 2 2 2 1 2 3 3 3 3 2 2 2 2 3 2 2 2 3 4 6
2 2 1 1 2 3 3 3 4 4 3 1 1 2 2 2 2 1 1 2 3 3 3 3 3 2 2 1 2 3 3 2 3 3 3 3 3 3 2 2 2 2 1 1
2 2 2 2 3 4 5 5 5 4 3 2 1 2 2 2 3 2 2 2 2 2 3 2 2 2 2 2 2 3 3 3 3 3 3 3 2 3 3 2 2 2 2 1
3 4 3 3 4 5 5 5 5 4 3 2 2 2 2 2 3 3 3 2 1 1 1 2 2 2 2 2 2 3 3 3 4 4 3 2 2 2 2 2 2 2 1 1
5 4 4 5 5 5 5 4 4 4 3 2 1 2 2 3 3 2 2 2 2 1 1 1 1 2 2 2 2 3 3 3 3 3 2 2 2 2 2 2 2 2 2 0
4 4 5 5 5 4 4 4 3 3 1 1 2 3 3 3 2 2 2 2 2 2 1 1 2 2 2 1 2 3 4 4 3 2 1 1 2 2 2 2 2 2 2 2
5 5 5 4 4 4 4 3 2 1 1 2 2 3 2 3 3 3 2 2 2 1 1 1 1 2 2 1 4 4 3 3 3 2 1 2 2 2 2 2 2 2 2 1
5 4 4 3 4 4 3 1 1 1 1 2 3 3 3 3 3 3 3 3 2 1 2 2 1 2 2 3 5 4 2 3 2 2 1 1 1 1 2 2 2 2 2 2
3 3 3 3 4 3 2 1 1 1 2 2 2 3 3 4 4 3 3 2 2 3 2 1 1 1 2 4 3 3 2 2 2 1 1 1 1 2 2 1 1 2 2 1
2 2 3 3 3 3 1 1 1 1 1 2 2 2 3 2 3 3 3 2 3 3 2 1 1 1 3 3 2 2 2 2 2 1 1 1 1 2 1 1 1 1 1 1
2 2 2 2 2 2 1 1 1 1 1 2 2 2 2 2 2 2 1 4 4 5 2 3 3 2 3 3 2 2 2 2 2 2 1 1 2 1 1 1 1 1 1 2
2 3 3 2 2 2 1 1 1 2 2 1 2 2 2 1 1 2 2 3 5 5 3 4 6 5 4 3 2 2 2 1 1 2 2 3 2 2 2 2 2 1 2 2
3 3 2 2 2 1 2 2 2 1 2 1 1 1 1 1 1 1 2 3 4 3 2 3 4 5 4 2 2 1 1 1 1 1 1 2 3 2 2 2 2 1 1 1
3 2 1 2 2 2 2 1 1 1 1 1 1 1 1 1 1 1 1 2 2 2 2 2 2 3 3 2 2 1 1 1 1 1 1 2 2 2 2 2 2 2 1 1
Wind_Direction
285 289 279 277 275 276 272 278 285 310 310 73 129 147 139 146 155 143 136 130 123 129 120 119 116 121 120 112 102 98 102 106 111 122 146 140 92 64 28 15 3 2 3 5
280 279 281 279 278 273 276 284 287 297 336 15 192 123 131 142 145 141 150 148 141 141 128 125 121 122 116 111 112 106 93 83 82 82 82 84 97 164 68 30 4 12 9 12
275 271 276 263 271 283 292 300 302 301 1 34 145 127 132 137 161 160 155 146 144 141 140 136 132 119 105 105 111 111 105 97 78 69 52 22 323 39 40 4 358 15 16 18
270 278 268 274 295 294 296 304 316 336 28 3 338 161 126 139 140 135 136 131 130 134 138 140 136 130 130 127 119 121 118 97 76 59 51 30 353 9 8 337 350 17 357 8
267 263 258 258 268 281 274 291 348 352 357 346 351 348 102 97 103 115 122 119 118 120 121 116 122 127 130 129 130 119 104 88 62 24 2 4 3 13 8 338 314 312 315 326
264 271 266 268 332 308 263 236 15 6 358 353 357 321 63 85 86 101 113 116 112 114 117 117 114 114 117 111 126 134 117 99 65 9 3 359 357 4 351 307 288 296 321 325
253 262 262 330 339 305 271 17 8 0 350 355 6 357 99 108 108 111 109 108 106 106 109 106 105 109 110 100 99 107 101 98 74 32 340 353 29 338 327 331 310 278 290 307
243 256 262 12 356 25 39 41 22 9 4 17 29 77 104 111 108 109 111 115 122 114 109 108 112 124 125 110 85 86 94 92 89 21 318 18 21 321 311 298 291 281 273 289
241 222 85 25 30 40 37 30 18 12 16 35 47 82 105 112 111 121 129 126 131 132 129 123 119 130 131 111 99 86 86 75 58 348 341 305 261 270 274 280 293 301 297 283
239 188 109 60 49 36 34 24 19 14 10 28 58 84 100 112 120 132 136 134 140 141 137 131 130 126 112 100 100 105 78 313 261 236 237 256 268 265 266 304 320 328 322 319
240 215 208 230 57 49 23 22 26 12 346 1 64 101 112 123 133 132 126 133 138 141 146 145 128 115 126 129 140 190 225 243 248 240 233 228 241 282 272 13 48 293 325 336
256 201 222 109 58 38 27 16 10 343 339 4 61 118 118 124 130 131 136 142 159 162 163 162 151 139 137 156 200 234 244 252 256 252 243 241 215 202 137 176 167 190 217 256
6 5 19 67 46 6 342 337 343 344 335 321 93 131 141 145 147 154 164 173 180 171 162 153 155 152 150 184 226 249 258 262 266 270 266 263 268 251 225 199 206 225 229 233
22 14 22 16 350 341 337 336 338 320 305 298 315 121 136 141 155 170 171 171 166 162 158 161 173 181 181 193 226 247 256 256 269 267 275 278 278 273 268 258 240 236 225 229
316 302 296 320 305 302 307 308 300 293 292 270 169 135 145 148 154 154 139 160 158 166 165 172 184 199 197 208 246 256 265 273 281 285 283 281 282 284 290 294 291 291 211 206
298 295 285 282 284 283 282 281 283 287 284 271 194 166 165 157 148 143 160 172 172 182 171 174 191 194 192 236 258 250 238 246 254 270 279 286 295 297 297 305 318 326 333 2
253 255 267 275 277 280 284 290 290 286 278 256 208 175 173 161 155 161 170 172 169 173 170 180 194 189 201 222 258 276 269 248 237 259 271 278 288 292 300 300 299 305 330 24
255 260 273 277 275 281 284 283 282 280 272 247 174 163 181 179 182 167 155 143 131 145 155 156 205 226 213 219 240 257 272 276 266 264 269 281 290 295 297 298 304 313 328 291
266 274 282 289 292 288 289 290 287 287 265 199 190 182 176 173 165 157 164 153 161 191 192 195 232 244 238 232 271 260 264 269 269 265 259 254 259 277 296 304 307 316 321 337
256 270 280 286 290 294 290 288 285 260 211 197 178 170 171 170 164 174 181 182 193 201 171 140 217 262 271 271 279 267 264 271 275 274 251 262 280 294 301 307 315 320 314 325
263 273 283 294 299 305 309 322 261 204 189 177 174 176 182 181 171 177 199 206 169 143 149 142 225 266 286 302 277 272 273 276 270 276 280 278 287 301 314 323 322 324 337 347
282 286 287 293 297 300 307 313 251 197 198 203 200 189 183 184 188 190 190 182 152 140 171 218 236 19 329 304 289 300 305 303 294 290 307 325 324 312 311 321 320 321 331 334
297 303 298 295 297 298 303 305 250 194 190 210 211 202 206 205 208 199 191 170 165 161 185 162 127 119 303 282 290 302 309 310 308 309 345 348 299 293 303 306 303 303 304 307
304 305 296 286 278 270 278 277 245 197 202 220 214 195 204 205 200 201 174 147 157 163 176 149 166 200 246 259 275 288 295 300 312 323 334 317 298 296 301 304 316 330 329 327
270 272 272 264 249 233 202 206 199 186 206 220 214 200 223 229 217 171 150 152 161 173 175 176 190 212 234 248 259 270 283 306 318 317 323 312 307 319 338 342 354 2 357 349
253 249 236 233 239 223 215 207 207 208 218 225 229 217 205 149 126 128 147 166 177 189 199 183 190 210 234 246 252 264 280 284 294 298 316 313 320 339 358 360 352 342 336 334
230 226 208 209 204 208 214 207 199 206 232 252 255 223 184 169 173 182 198 194 189 206 214 209 210 209 224 232 229 223 240 270 286 298 313 323 324 328 340 337 322 316 312 322